Home > Weather > Ajax > Past weeks

Flag for Canada Past Weather in Ajax, Ontario, Canada — Yesterday and Last 2 Weeks

Now
84 °F

Broken clouds.


Feels Like: 87 °F
Forecast: 69 / 83 °F
Wind: 14 mph from West

Location: Toronto Buttonville

Current Time: Aug 28, 2016 at 2:56:09 PM

Latest Report: Aug 28, 2016 at 2:00 PM


Visibility: 15 mi

Pressure: 30.13 "Hg

Humidity: 58%

Dew Point: 68 °F

Location of AjaxLocation

Past Weather in Ajax — Graph

°F

Ajax Temperature Yesterday

Maximum temperature yesterday: 81 °F (at 3:00 PM)
Minimum temperature yesterday: 61 °F (at 3:00 AM)
Average temperature yesterday: 71 °F

High & Low Weather Summary for the Past Weeks

 TemperatureHumidityPressure
High86 °F (Aug 20, 1:00 PM)100% (Aug 16, 4:00 AM)30.26 "Hg (Aug 16, 4:00 AM)
Low54 °F (Aug 22, 6:00 AM)36% (Aug 22, 3:00 PM)29.57 "Hg (Aug 21, 5:00 AM)
Average73 °F71%30.00 "Hg
* Reported Aug 13 1:00 PM — Aug 28 1:00 PM, Ajax, Weather by CustomWeather, © 2016

Note: Actual official high and low records may vary slightly from our data, if they occured in-between our weather recording intervals... More about our weather records

Advertising

Ajax Weather History for the Previous 24 Hours

Scroll right to see more
 ConditionsComfort  
Time TempWeatherWind HumidityBarometerVisibility
1:00 PM
Sun, Aug 28
84 °FPartly sunny.13 mph62%30.12 "Hg15 mi
12:00 PM84 °FBroken clouds.9 mph58%30.13 "Hg15 mi
11:00 AM82 °FPartly sunny.8 mph62%30.13 "Hg15 mi
10:00 AM79 °FPartly sunny.7 mph61%30.13 "Hg15 mi
9:00 AM75 °FPartly sunny.No wind78%30.14 "Hg15 mi
8:00 AM70 °FPartly sunny.2 mph88%30.14 "Hg15 mi
7:00 AM66 °FPassing clouds.3 mph94%30.14 "Hg15 mi
6:00 AM68 °FPassing clouds.2 mph88%30.13 "Hg15 mi
5:00 AM68 °FPassing clouds.3 mph88%30.11 "Hg15 mi
4:00 AM70 °FMostly cloudy.3 mph83%30.11 "Hg15 mi
3:00 AM70 °FMostly cloudy.3 mph88%30.12 "Hg15 mi
2:00 AM70 °FOvercast.6 mph83%30.13 "Hg15 mi
1:00 AM72 °FMostly cloudy.2 mph73%30.14 "Hg15 mi
12:00 AM72 °FOvercast.8 mph73%30.14 "Hg15 mi
11:00 PM
Sat, Aug 27
72 °FOvercast.8 mph73%30.14 "Hg15 mi
10:00 PM73 °FOvercast.8 mph53%30.15 "Hg15 mi
9:00 PM73 °FOvercast.8 mph57%30.15 "Hg15 mi
8:00 PM75 °FOvercast.6 mph47%30.16 "Hg15 mi
7:00 PM75 °FBroken clouds.8 mph57%30.17 "Hg15 mi
6:00 PM79 °FPartly sunny.5 mph51%30.17 "Hg15 mi
5:00 PM81 °FPartly sunny.5 mph45%30.17 "Hg15 mi
4:00 PM79 °FPartly sunny.5 mph48%30.16 "Hg15 mi
3:00 PM81 °FPartly sunny.9 mph48%30.18 "Hg15 mi
2:00 PM79 °FPartly sunny.8 mph51%30.18 "Hg15 mi
Weather by CustomWeather, © 2016

See weather overviewHow to use our weather pages